TimePDT,TemperatureF,Dew PointF,Humidity,Sea Level PressureIn,VisibilityMPH,Wind Direction,Wind SpeedMPH,Gust SpeedMPH,PrecipitationIn,Events,Conditions,WindDirDegrees,DateUTC
12:55 AM,43.0,23.0,45,30.39,10.0,North,6.9,-,N/A,,Clear,350,2013-03-10 08:55:00
1:55 AM,43.0,24.1,47,30.38,10.0,North,6.9,-,N/A,,Clear,350,2013-03-10 09:55:00
3:55 AM,42.1,25.0,51,30.37,10.0,WNW,11.5,-,N/A,,Clear,300,2013-03-10 10:55:00
5:55 AM,45.0,24.1,44,30.36,10.0,WNW,8.1,-,N/A,,Partly Cloudy,300,2013-03-10 12:55:00
6:55 AM,42.1,25.0,51,30.37,10.0,West,3.5,-,N/A,,Clear,280,2013-03-10 13:55:00
7:55 AM,37.9,27.0,65,30.38,10.0,East,4.6,-,N/A,,Clear,90,2013-03-10 14:55:00
8:55 AM,39.0,28.9,67,30.37,10.0,East,3.5,-,N/A,,Overcast,100,2013-03-10 15:55:00
9:55 AM,41.0,28.9,62,30.35,10.0,Calm,Calm,-,N/A,,Overcast,0,2013-03-10 16:55:00
10:55 AM,44.1,28.9,55,30.34,10.0,East,3.5,-,N/A,,Overcast,90,2013-03-10 17:55:00
11:55 AM,44.1,28.0,53,30.31,10.0,ESE,5.8,-,N/A,,Overcast,120,2013-03-10 18:55:00
12:55 PM,48.0,28.9,48,30.29,10.0,East,8.1,-,N/A,,Mostly Cloudy,100,2013-03-10 19:55:00
1:55 PM,50.0,28.9,44,30.26,10.0,East,8.1,-,N/A,,Mostly Cloudy,100,2013-03-10 20:55:00
2:55 PM,54.0,30.0,40,30.25,10.0,South,6.9,-,N/A,,Clear,190,2013-03-10 21:55:00
3:37 PM,55.4,30.2,38,30.23,10.0,WNW,12.7,-,N/A,,Mostly Cloudy,290,2013-03-10 22:37:00
3:55 PM,55.9,30.0,37,30.24,10.0,WNW,17.3,-,N/A,,Mostly Cloudy,290,2013-03-10 22:55:00
4:55 PM,55.0,28.9,37,30.25,10.0,NW,13.8,-,N/A,,Clear,320,2013-03-10 23:55:00
5:55 PM,48.9,30.9,50,30.24,10.0,ESE,8.1,-,N/A,,Clear,110,2013-03-11 00:55:00
7:55 PM,46.0,30.9,56,30.27,10.0,Calm,Calm,-,N/A,,Partly Cloudy,0,2013-03-11 02:55:00
8:55 PM,46.0,30.0,54,30.27,10.0,West,6.9,-,N/A,,Clear,280,2013-03-11 03:55:00
10:55 PM,46.9,28.9,50,30.29,10.0,Calm,Calm,-,N/A,,Clear,0,2013-03-11 05:55:00
12:55 AM,46.0,28.9,51,30.30,10.0,NNW,6.9,-,N/A,,Clear,340,2013-03-11 07:55:00